Location: Cahas Mountain Overlook
(37.0833°N, 80.1000°W)
Time: 18:16:17
(UTC-05:00)

Vanguard 3 - Pass Details

Date: 10 December 2023
Orbit: 508 x 3239 km, 33.4° (Epoch: 23 February)

Event Time Altitude Azimuth Distance (km) Brightness Sun altitude
Rises 20:16:35 0° 242° (WSW) 7,133 12.7 -37.7°
Reaches altitude 10° 20:21:44 10° 239° (WSW) 5,958 12.1 -38.7°
Enters shadow 20:38:29 62° 173° (S) 2,511 9.3 -42.1°
